This demonstration page uses our WeatherBlox Daily Observations layout. Learn more.

Left ArrowRight Arrow

39.51506, -84.39828

Hourly Observations for March 23, 2018

Temp ( °F °C ) Dew Point ( °F °C ) Humidity (%) Winds ( mph kmh ) Pressure ( in mb ) Visibility ( mi km ) Precip ( " mm )
12:15 am 00:15 Clear 27 -2.8 23 -4.8 86 86 N N/A 30.33 1027 10 16.0934 N/A
12:35 am 00:35 Clear 27 -2.8 23 -4.9 86 86 N N/A 30.33 1027 10 16.0934 N/A
12:55 am 00:55 Clear 28 -2.5 25 -4.1 89 89 N N/A 30.33 1027 10 16.0934 N/A
1:15 am 01:15 Clear 27 -2.9 23 -4.9 86 86 N N/A 30.33 1027 10 16.0934 N/A
1:35 am 01:35 Clear 24 -4.2 22 -5.6 90 90 N N/A 30.33 1027 10 16.0934 N/A
1:55 am 01:55 Clear 25 -4 22 -5.3 91 91 N N/A 30.33 1027 10 16.0934 N/A
2:15 am 02:15 Clear 25 -3.8 24 -4.7 94 94 N N/A 30.33 1027 10 16.0934 N/A
2:35 am 02:35 Clear 25 -4.1 22 -5.7 89 89 N N/A 30.33 1027 10 16.0934 N/A
2:55 am 02:55 Clear 26 -3.5 24 -4.2 95 95 N N/A 30.33 1027 10 16.0934 N/A
3:15 am 03:15 Clear 24 -4.3 23 -5.1 94 94 N N/A 30.33 1027 10 16.0934 N/A
3:35 am 03:35 Clear 24 -4.2 24 -4.5 98 98 N N/A 30.33 1027 10 16.0934 N/A
3:55 am 03:55 Clear 24 -4.3 24 -4.7 97 97 N N/A 30.33 1027 10 16.0934 N/A
4:15 am 04:15 Clear with Mist and Fog 24 -4.7 22 -5.3 96 96 N N/A 30.36 1028 5 8.0467 N/A
4:35 am 04:35 Partly Cloudy 24 -4.3 23 -5.1 94 94 N N/A 30.33 1027 10 16.0934 N/A
4:55 am 04:55 Cloudy 24 -4.7 22 -5.8 92 92 N N/A 30.36 1028 10 16.0934 N/A
5:15 am 05:15 Cloudy 24 -4.2 22 -5.7 89 89 N N/A 30.33 1027 10 16.0934 N/A
5:35 am 05:35 Cloudy 26 -3.4 22 -5.6 85 85 N N/A 30.33 1027 10 16.0934 N/A
5:55 am 05:55 Cloudy 26 -3.3 23 -4.9 89 89 N N/A 30.33 1027 10 16.0934 N/A
6:15 am 06:15 Cloudy 27 -2.8 23 -4.9 86 86 N N/A 30.33 1027 10 16.0934 N/A
6:35 am 06:35 Cloudy 27 -2.7 24 -4.6 87 87 N N/A 30.33 1027 10 16.0934 N/A
6:55 am 06:55 Cloudy 27 -3 24 -4.6 89 89 N N/A 30.33 1027 10 16.0934 N/A
7:15 am 07:15 Cloudy 28 -2.5 24 -4.3 88 88 N N/A 30.36 1028 10 16.0934 N/A
7:35 am 07:35 Partly Cloudy 26 -3.5 22 -5.3 88 88 N N/A 30.36 1028 10 16.0934 N/A
7:55 am 07:55 Sunny 26 -3.4 23 -4.9 90 90 N N/A 30.33 1027 10 16.0934 N/A
8:15 am 08:15 Sunny 25 -4 23 -5.1 92 92 N N/A 30.36 1028 10 16.0934 N/A
8:35 am 08:35 Sunny 27 -2.6 25 -4 90 90 N N/A 30.36 1028 10 16.0934 N/A
8:55 am 08:55 Sunny 31 -0.4 23 -5.1 71 71 N 5 7 30.36 1028 10 16.0934 N/A
9:15 am 09:15 Sunny 33 0.6 19 -7.1 57 57 N 8 13 30.36 1028 10 16.0934 N/A
9:35 am 09:35 Sunny 34 1.2 19 -7.3 54 54 N 8 13 30.36 1028 10 16.0934 N/A
9:55 am 09:55 Sunny 35 1.7 19 -7.4 51 51 N 8 13 30.36 1028 10 16.0934 N/A
10:15 am 10:15 Sunny 36 2.3 18 -7.6 48 48 NNE 7 11 30.36 1028 10 16.0934 N/A
10:35 am 10:35 Sunny 37 3 17 -8.3 44 44 N 7 11 30.36 1028 10 16.0934 N/A
10:55 am 10:55 Sunny 38 3.6 17 -8.6 41 41 N 8 13 30.36 1028 10 16.0934 N/A
11:15 am 11:15 Sunny 40 4.5 17 -8.1 40 40 N 10 17 30.36 1028 10 16.0934 N/A
11:35 am 11:35 Sunny 40 4.5 18 -7.7 41 41 N 8 13 30.36 1028 10 16.0934 N/A
11:55 am 11:55 Sunny 40 4.7 17 -8.1 39 39 NNW 5 7 30.36 1028 10 16.0934 N/A
12:15 pm 12:15 Sunny 42 5.6 19 -7.5 39 39 N 9 15 30.36 1028 10 16.0934 N/A
12:35 pm 12:35 Sunny 43 6.2 19 -7.3 38 38 N 10 17 30.33 1027 10 16.0934 N/A
12:55 pm 12:55 Sunny 44 6.8 20 -6.8 38 38 N 13 20 30.3 1026 10 16.0934 N/A
1:15 pm 13:15 Sunny 45 7 17 -8.2 33 33 NNW 12 19 30.3 1026 10 16.0934 N/A
1:35 pm 13:35 Sunny 44 6.8 16 -8.7 32 32 N 10 17 30.3 1026 10 16.0934 N/A
1:55 pm 13:55 Sunny 45 7.3 19 -7.3 35 35 N 13 20 30.3 1026 10 16.0934 N/A
2:15 pm 14:15 Sunny 45 7.4 19 -7.2 35 35 N 13 20 30.3 1026 10 16.0934 N/A
2:35 pm 14:35 Sunny 45 7.3 19 -7.1 35 35 N 14 22 30.3 1026 10 16.0934 N/A
2:55 pm 14:55 Sunny 46 7.8 18 -7.8 32 32 N 12 19 30.27 1025 10 16.0934 N/A
3:15 pm 15:15 Sunny 47 8.1 16 -8.8 29 29 NNW 9 15 30.27 1025 10 16.0934 N/A
3:35 pm 15:35 Sunny 46 7.8 15 -9.6 28 28 N 10 17 30.27 1025 10 16.0934 N/A
3:55 pm 15:55 Sunny 47 8.6 17 -8.2 30 30 N 10 17 30.27 1025 10 16.0934 N/A
4:15 pm 16:15 Sunny 47 8.5 16 -8.9 28 28 WNW 7 11 30.27 1025 10 16.0934 N/A
4:35 pm 16:35 Sunny 47 8.2 16 -8.9 29 29 WNW 5 7 30.27 1025 10 16.0934 N/A
4:55 pm 16:55 Sunny 47 8.2 17 -8.1 31 31 N 10 17 30.27 1025 10 16.0934 N/A
5:15 pm 17:15 Sunny 46 8 17 -8.5 30 30 NNW 8 13 30.27 1025 10 16.0934 N/A
5:35 pm 17:35 Sunny 46 8 17 -8.2 31 31 NW 8 13 30.27 1025 10 16.0934 N/A
5:55 pm 17:55 Sunny 46 7.9 19 -7.1 34 34 NNW 7 11 30.27 1025 10 16.0934 N/A
6:15 pm 18:15 Sunny 45 7.4 18 -7.7 34 34 NNW 5 7 30.27 1025 10 16.0934 N/A
6:35 pm 18:35 Sunny 45 7.3 20 -6.9 36 36 N 8 13 30.27 1025 10 16.0934 N/A
6:55 pm 18:55 Sunny 44 6.7 19 -7.1 37 37 N 6 9 30.27 1025 10 16.0934 N/A
7:15 pm 19:15 Sunny 42 5.7 20 -6.8 41 41 NNE 9 15 30.3 1026 10 16.0934 N/A
7:35 pm 19:35 Sunny 41 5 20 -6.8 43 43 NNE 6 9 30.3 1026 10 16.0934 N/A
7:55 pm 19:55 Clear 40 4.5 20 -6.8 44 44 NNE 5 7 30.3 1026 10 16.0934 N/A
8:15 pm 20:15 Clear 40 4.4 20 -6.4 46 46 N 3 6 30.3 1026 10 16.0934 N/A
8:35 pm 20:35 Clear 40 4.3 21 -6.3 46 46 N 3 6 30.3 1026 10 16.0934 N/A
8:55 pm 20:55 Clear 39 3.8 21 -6 49 49 N 3 6 30.3 1026 10 16.0934 N/A
9:15 pm 21:15 Clear 38 3.1 23 -5 56 56 N N/A 30.3 1026 10 16.0934 N/A
9:35 pm 21:35 Clear 36 2.2 24 -4.5 62 62 N 3 6 30.3 1026 10 16.0934 N/A
9:55 pm 21:55 Clear 36 2.4 22 -5.7 56 56 NNE 3 6 30.3 1026 10 16.0934 N/A
10:15 pm 22:15 Clear 34 1.2 23 -5.1 63 63 N N/A 30.3 1026 10 16.0934 N/A
10:35 pm 22:35 Clear 31 -0.8 23 -4.9 74 74 N N/A 30.3 1026 10 16.0934 N/A
10:55 pm 22:55 Clear 31 -0.6 23 -5 72 72 N N/A 30.3 1026 10 16.0934 N/A
11:15 pm 23:15 Clear 27 -2.6 22 -5.8 79 79 N N/A 30.3 1026 10 16.0934 N/A
11:35 pm 23:35 Clear 28 -2.5 23 -5 83 83 N N/A 30.3 1026 10 16.0934 N/A
11:55 pm 23:55 Clear 29 -1.9 22 -5.3 78 78 N N/A 30.3 1026 10 16.0934 N/A

Powered by AerisWeather